Location: McFarlands Corners
(41.4117°N, 81.3382°W)
Time: 00:10:01
(UTC+00:00)

Tiros 1 - Pass Details

Date: 16 February 2026
Orbit: 618 x 649 km, 48.4° (Epoch: 10 March)

Event Time Altitude Azimuth Distance (km) Brightness Sun altitude
Rises 15:50:19 0° 261° (W) 2,902 10.3 30.8°
Reaches altitude 10° 15:52:43 10° 267° (W) 1,992 9.5 31.0°
Maximum altitude 15:57:08 47° 342° (NNW) 823 7.7 31.5°
Drops below altitude 10° 16:01:32 10° 57° (ENE) 1,984 9.7 31.9°
Sets 16:03:55 0° 63° (ENE) 2,889 10.5 32.1°
